ITARNLAS2 Weather Reports


Display with metric or nautical units.
time (UTC)temp
F
wind
direction
speed
MPH
gust
MPH
rain 1hr
in
rain 24hr
in
rain mn
in
humidity
%
barometer
mb
20260901094603 73 250 1.0 5.0 0.00 0.00 0.00 50 1023.7
20260901093104 72 182 2.0 7.0 0.00 0.00 0.00 52 1023.8
20260901091619 71 121 3.0 8.0 0.00 0.00 0.00 53 1023.7
20260901090105 70 68 3.0 8.0 0.00 0.00 0.00 54 1023.7
20260901084605 70 116 3.0 7.0 0.00 0.00 0.00 55 1023.7
20260901083106 70 83 3.0 7.0 0.00 0.00 0.00 54 1023.6
20260901081603 69 184 3.0 10.0 0.00 0.00 0.00 61 1023.5
20260901080110 67 119 2.0 6.0 0.00 0.00 0.00 65 1023.5
20260901074606 65 105 1.0 7.0 0.00 0.00 0.00 73 1023.6
20260901073105 59 0 0.0 4.0 0.00 0.00 0.00 87 1023.4
20260901071606 55 0 0.0 0.0 0.00 0.00 0.00 90 1023.5
20260901070117 53 0 0.0 0.0 0.00 0.00 0.00 92 1023.6
20260901064604 52 0 0.0 0.0 0.00 0.00 0.00 92 1023.5
20260901063109 51 0 0.0 0.0 0.00 0.00 0.00 92 1023.5
20260901061608 50 0 0.0 0.0 0.00 0.00 0.00 92 1023.6
20260901060106 49 0 0.0 0.0 0.00 0.00 0.00 92 1023.5
20260901054605 48 0 0.0 0.0 0.00 0.00 0.00 91 1023.3
20260901053119 48 0 0.0 0.0 0.00 0.00 0.00 91 1023.2
20260901051606 48 0 0.0 0.0 0.00 0.00 0.00 91 1023.1
20260901050108 49 0 0.0 0.0 0.00 0.00 0.00 91 1023.2
20260901044610 49 0 0.0 0.0 0.00 0.00 0.00 91 1023.1
20260901043100 49 0 0.0 0.0 0.00 0.00 0.00 91 1023.1
20260901041606 49 0 0.0 0.0 0.00 0.00 0.00 90 1023.1
20260901040105 49 0 0.0 0.0 0.00 0.00 0.00 90 1023.1
20260901034602 50 0 0.0 0.0 0.00 0.00 0.00 90 1023.1
20260901033120 50 0 0.0 0.0 0.00 0.00 0.00 90 1023.3
20260901031600 50 0 0.0 0.0 0.00 0.00 0.00 89 1023.5
20260901030108 51 0 0.0 0.0 0.00 0.00 0.00 89 1023.6
20260901024601 51 0 0.0 0.0 0.00 0.00 0.00 89 1023.7
20260901023110 51 0 0.0 0.0 0.00 0.00 0.00 89 1023.8
20260901021606 52 0 0.0 0.0 0.00 0.00 0.00 88 1023.8
20260901020157 52 0 0.0 0.0 0.00 0.00 0.00 88 1023.9
20260901014608 53 0 0.0 0.0 0.00 0.00 0.00 87 1024.0
20260901013114 53 0 0.0 0.0 0.00 0.00 0.00 86 1024.0
20260901011621 54 0 0.0 0.0 0.00 0.00 0.00 86 1024.0
20260901010117 54 0 0.0 0.0 0.00 0.00 0.00 85 1024.0
20260901004608 55 0 0.0 0.0 0.00 0.00 0.00 84 1024.1
20260901003104 56 0 0.0 0.0 0.00 0.00 0.00 82 1024.3
20260901001606 57 0 0.0 0.0 0.00 0.00 0.00 80 1024.4
20260901000106 58 0 0.0 0.0 0.00 0.00 0.00 79 1024.5
20260831234608 59 0 0.0 0.0 0.00 0.00 0.00 79 1024.5
20260831233107 59 0 0.0 0.0 0.00 0.00 0.00 77 1024.5
20260831231602 60 0 0.0 0.0 0.00 0.00 0.00 75 1024.7
20260831230114 60 0 0.0 0.0 0.00 0.00 0.00 74 1024.7
20260831224608 60 0 0.0 0.0 0.00 0.00 0.00 73 1024.6
20260831223107 59 0 0.0 0.0 0.00 0.00 0.00 76 1024.6
20260831221610 59 0 0.0 0.0 0.00 0.00 0.00 76 1024.5
20260831220115 60 0 0.0 0.0 0.00 0.00 0.00 75 1024.4
20260831214613 60 0 0.0 0.0 0.00 0.00 0.00 74 1024.3
20260831213104 60 0 0.0 0.0 0.00 0.00 0.00 74 1024.2
20260831211610 60 0 0.0 0.0 0.00 0.00 0.00 74 1024.2
20260831210106 60 0 0.0 0.0 0.00 0.00 0.00 74 1024.2
20260831204603 60 0 0.0 0.0 0.00 0.00 0.00 74 1024.1
20260831203108 60 0 0.0 0.0 0.00 0.00 0.00 74 1024.1
20260831201603 60 0 0.0 0.0 0.00 0.00 0.00 74 1023.9
20260831200111 61 0 0.0 0.0 0.00 0.00 0.00 73 1023.9
20260831194616 61 0 0.0 0.0 0.00 0.00 0.00 71 1023.8
20260831193106 62 0 0.0 0.0 0.00 0.00 0.00 69 1023.7
20260831191601 63 0 0.0 0.0 0.00 0.00 0.00 69 1023.7
20260831190116 63 0 0.0 0.0 0.00 0.00 0.00 69 1023.7
20260831184610 64 0 0.0 0.0 0.00 0.00 0.00 67 1023.4
20260831183118 65 0 0.0 0.0 0.00 0.00 0.00 66 1023.5
20260831181606 66 0 0.0 0.0 0.00 0.00 0.00 64 1023.4
20260831180119 66 0 0.0 4.0 0.00 0.00 0.00 64 1023.2
20260831174601 67 180 1.0 5.0 0.00 0.00 0.00 62 1023.3
20260831173104 67 155 1.0 5.0 0.00 0.00 0.00 61 1023.2
20260831171606 68 0 2.0 7.0 0.00 0.00 0.00 60 1023.3
20260831170107 68 196 1.0 6.0 0.00 0.00 0.00 58 1023.4
20260831164606 69 215 2.0 6.0 0.00 0.00 0.00 58 1023.4
20260831163107 69 155 2.0 8.0 0.00 0.00 0.00 58 1023.4
20260831161606 70 169 2.0 10.0 0.00 0.00 0.00 58 1023.4
20260831160109 70 121 3.0 8.0 0.00 0.00 0.00 58 1023.6
20260831154628 70 160 1.0 10.0 0.00 0.00 0.00 59 1023.6
20260831153106 71 189 3.0 10.0 0.00 0.00 0.00 58 1023.7
20260831151608 71 172 2.0 7.0 0.00 0.00 0.00 59 1023.7
20260831150113 70 119 3.0 11.0 0.00 0.00 0.00 58 1023.8
20260831144607 73 129 2.0 9.0 0.00 0.00 0.00 54 1023.7
20260831143106 72 181 3.0 10.0 0.00 0.00 0.00 55 1023.7
20260831141614 71 200 4.0 13.0 0.00 0.00 0.00 57 1023.7
20260831140107 71 263 4.0 12.0 0.00 0.00 0.00 55 1023.8
20260831134606 72 150 4.0 11.0 0.00 0.00 0.00 54 1023.8
20260831133108 71 138 5.0 13.0 0.00 0.00 0.00 54 1024.0
20260831131605 72 213 2.0 9.0 0.00 0.00 0.00 52 1023.9
20260831130109 72 55 3.0 9.0 0.00 0.00 0.00 53 1024.1
20260831124604 71 90 2.0 11.0 0.00 0.00 0.00 53 1023.9
20260831123105 70 141 3.0 10.0 0.00 0.00 0.00 57 1023.9
20260831121601 70 141 4.0 8.0 0.00 0.00 0.00 58 1024.0
20260831120127 69 205 4.0 9.0 0.00 0.00 0.00 62 1023.9
20260831114608 67 165 3.0 8.0 0.00 0.00 0.00 68 1023.9
20260831113108 67 120 2.0 8.0 0.00 0.00 0.00 66 1024.1
20260831111615 66 158 3.0 7.0 0.00 0.00 0.00 69 1024.2
20260831110110 66 133 1.0 7.0 0.00 0.00 0.00 68 1024.2
20260831104605 66 279 2.0 10.0 0.00 0.00 0.00 70 1024.4
20260831103108 65 138 2.0 5.0 0.00 0.00 0.00 74 1024.2
20260831101610 64 107 3.0 7.0 0.00 0.00 0.00 75 1024.2
20260831100114 64 163 2.0 9.0 0.00 0.00 0.00 76 1024.1